Location: Wroclaw
(51.1100°N, 17.0222°E)
Time: 09:45:40
(UTC+01:00)

ISS - Visible Passes

Search period start: 14 December 2018 00:00
Search period end: 24 December 2018 00:00
Orbit: 401 x 408 km, 51.6° (Epoch: 15 December)

Date Brightness Start Highest point End Pass type
(mag) Time Alt. Az. Time Alt. Az. Time Alt. Az.
14 Dec -0.4 17:16:22 10° WSW 17:17:22 11° SW 17:18:21 10° SSW visible
15 Dec -0.7 16:23:11 10° W 16:25:27 18° SW 16:27:43 10° S visible
22 Dec -0.5 07:06:09 10° S 07:08:01 14° SE 07:09:52 10° ESE visible
